Terminal Aerodrome Forecast
Issued by NWS

Home | Current Version | Previous Version | Graphics & Text | Print | Product List | Glossary On
Versions: 1 2 3 4 5 6 7 8 9 10 11 12 13 14 15 16 17 18 19 20 21 22
000
FTUS43 KBIS 281700
TAFMOT
TAF
KMOT 281727Z 2818/2918 01011G18KT P6SM VCSH BKN008 OVC050
      TEMPO 2818/2821 BKN012 OVC060
     FM282100 02010G18KT P6SM VCSH BKN015 OVC050
     FM290100 04010KT 5SM BR VCSH BKN010 OVC020
     FM290400 05009KT 4SM BR SCT004 OVC007=

USA.gov is the U.S. government's official web portal to all federal, state and local government web resources and services.